When you browse on this site, cookies collect data to enhance your experience and personalize the content and advertising you see.
Visit our Privacy Policy to learn more. By continuing to use the site, you agree to this use of cookies and data.
  • En España
  • Lista de países
  • Para 7 días
  • Temperatura del agua
  • Mapa Satelital
  • El tiempo en el mapa
  • Informadores
  • user-avatar
    Iniciar sesión

    Tiempo cada hora Velika Gorica

    Hoy, 22 Abril, Lunes

    Tiempo Temperatura Precipitaciones Viento Presión Humedad
    00:00 +12°C° 0 mm 1 mps 753 mmHg 59%
    01:00 +11°C° 0 mm 0 mps 752 mmHg 59%
    02:00 +12°C° 0 mm 1 mps 752 mmHg 60%
    03:00 +11°C° 0 mm 1 mps 752 mmHg 62%
    04:00 +11°C° 0 mm 1 mps 751 mmHg 63%
    05:00 +11°C° 0 mm 1 mps 751 mmHg 62%
    06:00 +12°C° 0 mm 1 mps 751 mmHg 60%
    07:00 +14°C° 0 mm 2 mps 751 mmHg 55%
    08:00 +16°C° 0 mm 2 mps 750 mmHg 49%
    09:00 +18°C° 0 mm 3 mps 750 mmHg 44%
    10:00 +20°C° 0 mm 3 mps 749 mmHg 39%
    11:00 +21°C° 0 mm 3 mps 749 mmHg 37%
    12:00 +24°C° 0 mm 3 mps 749 mmHg 34%
    13:00 +25°C° 0 mm 3 mps 748 mmHg 32%
    14:00 +25°C° 0 mm 2 mps 748 mmHg 33%
    15:00 +25°C° 0 mm 2 mps 747 mmHg 35%
    16:00 +25°C° 0 mm 2 mps 747 mmHg 36%
    17:00 +23°C° 0 mm 2 mps 747 mmHg 43%
    18:00 +20°C° 0 mm 2 mps 747 mmHg 50%
    19:00 +18°C° 0 mm 2 mps 747 mmHg 57%
    20:00 +17°C° 0 mm 2 mps 747 mmHg 60%
    21:00 +16°C° 0 mm 1 mps 747 mmHg 63%
    22:00 +15°C° 0 mm 1 mps 747 mmHg 65%
    23:00 +15°C° 0 mm 1 mps 747 mmHg 67%

    Mañana, 23 Abril, Martes

    Tiempo Temperatura Precipitaciones Viento Presión Humedad
    00:00 +13°C° 0 mm 0 mps 747 mmHg 69%
    01:00 +12°C° 0 mm 0 mps 747 mmHg 70%
    02:00 +13°C° 0.7 mm 1 mps 747 mmHg 76%
    03:00 +13°C° 0.7 mm 1 mps 746 mmHg 82%
    04:00 +12°C° 0.7 mm 1 mps 746 mmHg 87%
    05:00 +12°C° 1.4 mm 1 mps 746 mmHg 89%
    06:00 +12°C° 1.4 mm 2 mps 746 mmHg 91%
    07:00 +12°C° 1.4 mm 2 mps 746 mmHg 92%
    08:00 +13°C° 0 mm 2 mps 746 mmHg 91%
    09:00 +14°C° 0 mm 1 mps 746 mmHg 89%
    10:00 +14°C° 0 mm 1 mps 746 mmHg 87%
    11:00 +15°C° 0 mm 1 mps 746 mmHg 82%
    12:00 +16°C° 0 mm 2 mps 746 mmHg 77%
    13:00 +17°C° 0 mm 2 mps 746 mmHg 72%
    14:00 +18°C° 0 mm 2 mps 746 mmHg 71%
    15:00 +18°C° 0 mm 2 mps 745 mmHg 70%
    16:00 +19°C° 0 mm 2 mps 745 mmHg 68%
    17:00 +18°C° 0.5 mm 2 mps 745 mmHg 74%
    18:00 +18°C° 0.5 mm 1 mps 745 mmHg 80%
    19:00 +16°C° 0.5 mm 1 mps 745 mmHg 86%
    20:00 +15°C° 0.1 mm 1 mps 745 mmHg 88%
    21:00 +15°C° 0.1 mm 1 mps 746 mmHg 90%
    22:00 +14°C° 0.1 mm 2 mps 746 mmHg 92%
    23:00 +14°C° 0 mm 1 mps 746 mmHg 93%

    Pasado mañana, 24 Abril, Miércoles

    Tiempo Temperatura Precipitaciones Viento Presión Humedad
    00:00 +13°C° 0 mm 1 mps 747 mmHg 94%
    01:00 +13°C° 0 mm 1 mps 747 mmHg 95%
    02:00 +13°C° 0 mm 1 mps 747 mmHg 94%
    03:00 +13°C° 0 mm 1 mps 747 mmHg 94%
    04:00 +13°C° 0 mm 1 mps 748 mmHg 94%
    05:00 +14°C° 0 mm 2 mps 748 mmHg 91%
    06:00 +15°C° 0 mm 2 mps 748 mmHg 89%
    07:00 +15°C° 0 mm 2 mps 749 mmHg 86%
    08:00 +17°C° 0 mm 3 mps 749 mmHg 78%
    09:00 +19°C° 0 mm 4 mps 750 mmHg 69%
    10:00 +21°C° 0 mm 4 mps 750 mmHg 60%
    11:00 +22°C° 0.2 mm 4 mps 750 mmHg 57%
    12:00 +23°C° 0.2 mm 5 mps 750 mmHg 53%
    13:00 +25°C° 0.2 mm 5 mps 751 mmHg 50%
    14:00 +25°C° 0 mm 5 mps 751 mmHg 50%
    15:00 +23°C° 0 mm 4 mps 751 mmHg 51%
    16:00 +23°C° 0 mm 4 mps 751 mmHg 51%
    17:00 +22°C° 0 mm 3 mps 751 mmHg 58%
    18:00 +20°C° 0 mm 3 mps 751 mmHg 65%
    19:00 +18°C° 0 mm 2 mps 751 mmHg 72%
    20:00 +17°C° 0 mm 2 mps 752 mmHg 75%
    21:00 +16°C° 0 mm 2 mps 752 mmHg 78%
    22:00 +15°C° 0 mm 2 mps 752 mmHg 82%
    23:00 +15°C° 0 mm 2 mps 752 mmHg 84%

    25 Abril, Jueves

    Tiempo Temperatura Precipitaciones Viento Presión Humedad
    00:00 +14°C° 0 mm 2 mps 752 mmHg 86%
    01:00 +14°C° 0 mm 2 mps 752 mmHg 88%
    02:00 +13°C° 0 mm 1 mps 753 mmHg 88%
    03:00 +13°C° 0 mm 1 mps 753 mmHg 89%
    04:00 +13°C° 0 mm 1 mps 753 mmHg 89%
    05:00 +14°C° 0 mm 1 mps 753 mmHg 85%
    06:00 +15°C° 0 mm 1 mps 753 mmHg 82%
    07:00 +15°C° 0 mm 1 mps 753 mmHg 78%
    08:00 +18°C° 0 mm 1 mps 753 mmHg 71%
    09:00 +20°C° 0 mm 2 mps 753 mmHg 64%
    10:00 +23°C° 0 mm 2 mps 753 mmHg 56%
    11:00 +24°C° 0 mm 2 mps 753 mmHg 53%
    12:00 +26°C° 0 mm 2 mps 753 mmHg 49%
    13:00 +27°C° 0 mm 2 mps 752 mmHg 45%
    14:00 +27°C° 0 mm 2 mps 752 mmHg 46%
    15:00 +27°C° 0 mm 2 mps 752 mmHg 46%
    16:00 +27°C° 0 mm 2 mps 752 mmHg 46%
    17:00 +25°C° 0 mm 2 mps 752 mmHg 53%
    18:00 +23°C° 0 mm 2 mps 752 mmHg 60%
    19:00 +20°C° 0 mm 2 mps 752 mmHg 66%
    20:00 +19°C° 0 mm 2 mps 752 mmHg 69%
    21:00 +18°C° 0 mm 2 mps 752 mmHg 73%
    22:00 +18°C° 0 mm 1 mps 752 mmHg 76%
    23:00 +16°C° 0 mm 1 mps 752 mmHg 78%

    26 Abril, Viernes

    Tiempo Temperatura Precipitaciones Viento Presión Humedad
    00:00 +16°C° 0 mm 1 mps 752 mmHg 80%
    01:00 +15°C° 0 mm 1 mps 752 mmHg 82%
    02:00 +15°C° 0 mm 1 mps 751 mmHg 82%
    03:00 +14°C° 0 mm 1 mps 751 mmHg 83%
    04:00 +14°C° 0 mm 1 mps 751 mmHg 83%
    05:00 +15°C° 0 mm 1 mps 751 mmHg 79%
    06:00 +15°C° 0 mm 1 mps 751 mmHg 75%
    07:00 +16°C° 0 mm 1 mps 751 mmHg 71%
    08:00 +20°C° 0 mm 1 mps 751 mmHg 63%
    09:00 +21°C° 0 mm 2 mps 751 mmHg 56%
    10:00 +24°C° 0 mm 2 mps 751 mmHg 48%
    11:00 +25°C° 0 mm 2 mps 750 mmHg 45%
    12:00 +27°C° 0 mm 2 mps 750 mmHg 41%
    13:00 +28°C° 0 mm 3 mps 749 mmHg 38%
    14:00 +27°C° 0 mm 2 mps 749 mmHg 42%
    15:00 +27°C° 0 mm 2 mps 748 mmHg 46%
    16:00 +26°C° 0 mm 2 mps 748 mmHg 50%
    17:00 +24°C° 0 mm 2 mps 748 mmHg 54%
    18:00 +21°C° 0 mm 2 mps 748 mmHg 58%
    19:00 +20°C° 0 mm 3 mps 748 mmHg 62%
    20:00 +19°C° 0.1 mm 2 mps 749 mmHg 66%
    21:00 +18°C° 0.1 mm 2 mps 749 mmHg 70%
    22:00 +17°C° 0.1 mm 2 mps 749 mmHg 74%
    23:00 +16°C° 0.1 mm 2 mps 750 mmHg 78%

    27 Abril, Sábado

    Tiempo Temperatura Precipitaciones Viento Presión Humedad
    00:00 +15°C° 0.1 mm 1 mps 750 mmHg 83%
    01:00 +14°C° 0.1 mm 1 mps 750 mmHg 87%
    02:00 +13°C° 0.3 mm 1 mps 751 mmHg 87%
    03:00 +13°C° 0.3 mm 2 mps 751 mmHg 87%
    04:00 +12°C° 0.3 mm 2 mps 751 mmHg 88%
    05:00 +12°C° 0.1 mm 2 mps 752 mmHg 87%
    06:00 +12°C° 0.1 mm 1 mps 752 mmHg 85%
    07:00 +12°C° 0.1 mm 1 mps 752 mmHg 84%
    08:00 +12°C° 1 mm 1 mps 753 mmHg 85%
    09:00 +12°C° 1 mm 1 mps 753 mmHg 86%
    10:00 +12°C° 1 mm 1 mps 753 mmHg 87%
    11:00 +12°C° 1 mm 1 mps 753 mmHg 87%
    12:00 +13°C° 1 mm 1 mps 753 mmHg 87%
    13:00 +13°C° 1 mm 1 mps 753 mmHg 87%
    14:00 +13°C° 0.3 mm 1 mps 753 mmHg 87%
    15:00 +13°C° 0.3 mm 1 mps 753 mmHg 87%
    16:00 +14°C° 0.3 mm 1 mps 754 mmHg 87%
    17:00 +13°C° 0.2 mm 1 mps 754 mmHg 88%
    18:00 +13°C° 0.2 mm 1 mps 754 mmHg 90%
    19:00 +13°C° 0.2 mm 1 mps 754 mmHg 91%
    20:00 +12°C° 0.3 mm 1 mps 754 mmHg 90%
    21:00 +12°C° 0.3 mm 1 mps 754 mmHg 88%
    22:00 +12°C° 0.3 mm 2 mps 755 mmHg 87%
    23:00 +12°C° 0 mm 2 mps 755 mmHg 85%
    Mostrar más